owner,sensor,date,latitude,longitude,vertical_datum,sea_water_practical_salinity,qcFlag 
LUMCON,ioos:station:LUMCON:104:1,2011-03-01T01:00:00Z,29.5526,-90.8070,-9999.0,0.25,1111122 
LUMCON,ioos:station:LUMCON:104:1,2011-03-01T02:00:00Z,29.5526,-90.8070,-9999.0,0.25,1111122 
LUMCON,ioos:station:LUMCON:104:1,2011-03-01T03:00:00Z,29.5526,-90.8070,-9999.0,0.25,1111122 
LUMCON,ioos:station:LUMCON:104:1,2011-03-01T04:00:00Z,29.5526,-90.8070,-9999.0,0.25,1111122 
LUMCON,ioos:station:LUMCON:104:1,2011-03-01T05:00:00Z,29.5526,-90.8070,-9999.0,0.25,1111122 
LUMCON,ioos:station:LUMCON:104:1,2011-03-01T06:00:00Z,29.5526,-90.8070,-9999.0,0.25,1111122 
LUMCON,ioos:station:LUMCON:104:1,2011-03-01T07:00:00Z,29.5526,-90.8070,-9999.0,0.25,1111122 
LUMCON,ioos:station:LUMCON:104:1,2011-03-01T08:00:00Z,29.5526,-90.8070,-9999.0,0.25,1111122 
LUMCON,ioos:station:LUMCON:104:1,2011-03-01T09:00:00Z,29.5526,-90.8070,-9999.0,0.25,1111122 
LUMCON,ioos:station:LUMCON:104:1,2011-03-01T10:00:00Z,29.5526,-90.8070,-9999.0,0.25,1111122 
LUMCON,ioos:station:LUMCON:104:1,2011-03-01T11:00:00Z,29.5526,-90.8070,-9999.0,0.25,1111122 
LUMCON,ioos:station:LUMCON:104:1,2011-03-01T12:00:00Z,29.5526,-90.8070,-9999.0,0.25,1111122 
LUMCON,ioos:station:LUMCON:104:1,2011-03-01T13:00:00Z,29.5526,-90.8070,-9999.0,0.25,1111122 
LUMCON,ioos:station:LUMCON:104:1,2011-03-01T14:00:00Z,29.5526,-90.8070,-9999.0,0.257,1111122 
LUMCON,ioos:station:LUMCON:104:1,2011-03-01T15:00:00Z,29.5526,-90.8070,-9999.0,0.255,1111122 
LUMCON,ioos:station:LUMCON:104:1,2011-03-01T16:00:00Z,29.5526,-90.8070,-9999.0,0.25,1111122 
LUMCON,ioos:station:LUMCON:104:1,2011-03-01T17:00:00Z,29.5526,-90.8070,-9999.0,0.25,1111122 
LUMCON,ioos:station:LUMCON:104:1,2011-03-01T18:00:00Z,29.5526,-90.8070,-9999.0,0.25,1111122 
LUMCON,ioos:station:LUMCON:104:1,2011-03-01T19:00:00Z,29.5526,-90.8070,-9999.0,0.25,1111122 
LUMCON,ioos:station:LUMCON:104:1,2011-03-01T20:00:00Z,29.5526,-90.8070,-9999.0,0.258,1111122 
LUMCON,ioos:station:LUMCON:104:1,2011-03-01T21:00:00Z,29.5526,-90.8070,-9999.0,0.26,1111122 
LUMCON,ioos:station:LUMCON:104:1,2011-03-01T22:00:00Z,29.5526,-90.8070,-9999.0,0.26,1111122 
LUMCON,ioos:station:LUMCON:104:1,2011-03-01T23:00:00Z,29.5526,-90.8070,-9999.0,0.26,1111122 
LUMCON,ioos:station:LUMCON:104:1,2011-03-02T01:00:00Z,29.5526,-90.8070,-9999.0,0.26,1111122 
LUMCON,ioos:station:LUMCON:104:1,2011-03-02T02:00:00Z,29.5526,-90.8070,-9999.0,0.26,1111122 
LUMCON,ioos:station:LUMCON:104:1,2011-03-02T03:00:00Z,29.5526,-90.8070,-9999.0,0.26,1111122 
LUMCON,ioos:station:LUMCON:104:1,2011-03-02T04:00:00Z,29.5526,-90.8070,-9999.0,0.26,1111122 
LUMCON,ioos:station:LUMCON:104:1,2011-03-02T05:00:00Z,29.5526,-90.8070,-9999.0,0.26,1111122 
LUMCON,ioos:station:LUMCON:104:1,2011-03-02T06:00:00Z,29.5526,-90.8070,-9999.0,0.26,1111122 
LUMCON,ioos:station:LUMCON:104:1,2011-03-02T07:00:00Z,29.5526,-90.8070,-9999.0,0.26,1111122 
LUMCON,ioos:station:LUMCON:104:1,2011-03-02T08:00:00Z,29.5526,-90.8070,-9999.0,0.26,1111122 
LUMCON,ioos:station:LUMCON:104:1,2011-03-02T09:00:00Z,29.5526,-90.8070,-9999.0,0.26,1111122 
LUMCON,ioos:station:LUMCON:104:1,2011-03-02T10:00:00Z,29.5526,-90.8070,-9999.0,0.26,1111122 
LUMCON,ioos:station:LUMCON:104:1,2011-03-02T11:00:00Z,29.5526,-90.8070,-9999.0,0.26,1111122 
LUMCON,ioos:station:LUMCON:104:1,2011-03-02T12:00:00Z,29.5526,-90.8070,-9999.0,0.26,1111122 
LUMCON,ioos:station:LUMCON:104:1,2011-03-02T13:00:00Z,29.5526,-90.8070,-9999.0,0.26,1111122 
LUMCON,ioos:station:LUMCON:104:1,2011-03-02T14:00:00Z,29.5526,-90.8070,-9999.0,0.26,1111122 
LUMCON,ioos:station:LUMCON:104:1,2011-03-02T15:00:00Z,29.5526,-90.8070,-9999.0,0.26,1111122 
LUMCON,ioos:station:LUMCON:104:1,2011-03-02T16:00:00Z,29.5526,-90.8070,-9999.0,0.26,1111122 
LUMCON,ioos:station:LUMCON:104:1,2011-03-02T17:00:00Z,29.5526,-90.8070,-9999.0,0.26,1111122 
LUMCON,ioos:station:LUMCON:104:1,2011-03-02T18:00:00Z,29.5526,-90.8070,-9999.0,0.26,1111122 
LUMCON,ioos:station:LUMCON:104:1,2011-03-02T19:00:00Z,29.5526,-90.8070,-9999.0,0.26,1111122 
LUMCON,ioos:station:LUMCON:104:1,2011-03-02T20:00:00Z,29.5526,-90.8070,-9999.0,0.26,1111122 
LUMCON,ioos:station:LUMCON:104:1,2011-03-02T21:00:00Z,29.5526,-90.8070,-9999.0,0.263,1111122 
LUMCON,ioos:station:LUMCON:104:1,2011-03-02T22:00:00Z,29.5526,-90.8070,-9999.0,0.27,1111122 
LUMCON,ioos:station:LUMCON:104:1,2011-03-02T23:00:00Z,29.5526,-90.8070,-9999.0,0.27,1111122 
LUMCON,ioos:station:LUMCON:104:1,2011-03-09T05:00:00Z,29.5526,-90.8070,-9999.0,0.22,1111122 
LUMCON,ioos:station:LUMCON:104:1,2011-03-09T06:00:00Z,29.5526,-90.8070,-9999.0,0.22,1111122 
LUMCON,ioos:station:LUMCON:104:1,2011-03-09T07:00:00Z,29.5526,-90.8070,-9999.0,0.22,1111122 
LUMCON,ioos:station:LUMCON:104:1,2011-03-09T08:00:00Z,29.5526,-90.8070,-9999.0,0.22,1111122 
LUMCON,ioos:station:LUMCON:104:1,2011-03-09T09:00:00Z,29.5526,-90.8070,-9999.0,0.22,1111122 
LUMCON,ioos:station:LUMCON:104:1,2011-03-09T10:00:00Z,29.5526,-90.8070,-9999.0,0.215,1111122 
LUMCON,ioos:station:LUMCON:104:1,2011-03-09T11:00:00Z,29.5526,-90.8070,-9999.0,0.21,1111122 
LUMCON,ioos:station:LUMCON:104:1,2011-03-09T12:00:00Z,29.5526,-90.8070,-9999.0,0.21,1111122 
LUMCON,ioos:station:LUMCON:104:1,2011-03-09T13:00:00Z,29.5526,-90.8070,-9999.0,0.21,1111122 
LUMCON,ioos:station:LUMCON:104:1,2011-03-09T14:00:00Z,29.5526,-90.8070,-9999.0,0.21,1111122 
LUMCON,ioos:station:LUMCON:104:1,2011-03-09T15:00:00Z,29.5526,-90.8070,-9999.0,0.21,1111122 
LUMCON,ioos:station:LUMCON:104:1,2011-03-09T16:00:00Z,29.5526,-90.8070,-9999.0,0.21,1111122 
LUMCON,ioos:station:LUMCON:104:1,2011-03-09T17:00:00Z,29.5526,-90.8070,-9999.0,0.21,1111122 
LUMCON,ioos:station:LUMCON:104:1,2011-03-09T18:00:00Z,29.5526,-90.8070,-9999.0,0.21,1111122 
LUMCON,ioos:station:LUMCON:104:1,2011-03-09T19:00:00Z,29.5526,-90.8070,-9999.0,0.21,1111122 
LUMCON,ioos:station:LUMCON:104:1,2011-03-09T20:00:00Z,29.5526,-90.8070,-9999.0,0.21,1111122 
LUMCON,ioos:station:LUMCON:104:1,2011-03-09T21:00:00Z,29.5526,-90.8070,-9999.0,0.21,1111122 
LUMCON,ioos:station:LUMCON:104:1,2011-03-09T22:00:00Z,29.5526,-90.8070,-9999.0,0.218,1111122 
LUMCON,ioos:station:LUMCON:104:1,2011-03-09T23:00:00Z,29.5526,-90.8070,-9999.0,0.22,1111122 
LUMCON,ioos:station:LUMCON:104:1,2011-03-10T16:00:00Z,29.5526,-90.8070,-9999.0,0.21,1111122 
LUMCON,ioos:station:LUMCON:104:1,2011-03-10T17:00:00Z,29.5526,-90.8070,-9999.0,0.21,1111122 
LUMCON,ioos:station:LUMCON:104:1,2011-03-10T18:00:00Z,29.5526,-90.8070,-9999.0,0.21,1111122 
LUMCON,ioos:station:LUMCON:104:1,2011-03-10T19:00:00Z,29.5526,-90.8070,-9999.0,0.21,1111122 
LUMCON,ioos:station:LUMCON:104:1,2011-03-10T20:00:00Z,29.5526,-90.8070,-9999.0,0.21,1111122 
LUMCON,ioos:station:LUMCON:104:1,2011-03-10T21:00:00Z,29.5526,-90.8070,-9999.0,0.21,1111122 
LUMCON,ioos:station:LUMCON:104:1,2011-03-10T22:00:00Z,29.5526,-90.8070,-9999.0,0.21,1111122 
LUMCON,ioos:station:LUMCON:104:1,2011-03-10T23:00:00Z,29.5526,-90.8070,-9999.0,0.21,1111122 
LUMCON,ioos:station:LUMCON:104:1,2011-03-11T01:00:00Z,29.5526,-90.8070,-9999.0,0.21,1111122 
LUMCON,ioos:station:LUMCON:104:1,2011-03-11T02:00:00Z,29.5526,-90.8070,-9999.0,0.21,1111122 
LUMCON,ioos:station:LUMCON:104:1,2011-03-11T03:00:00Z,29.5526,-90.8070,-9999.0,0.21,1111122 
LUMCON,ioos:station:LUMCON:104:1,2011-03-11T04:00:00Z,29.5526,-90.8070,-9999.0,0.21,1111122 
LUMCON,ioos:station:LUMCON:104:1,2011-03-11T05:00:00Z,29.5526,-90.8070,-9999.0,0.21,1111122 
LUMCON,ioos:station:LUMCON:104:1,2011-03-11T06:00:00Z,29.5526,-90.8070,-9999.0,0.21,1111122 
LUMCON,ioos:station:LUMCON:104:1,2011-03-11T07:00:00Z,29.5526,-90.8070,-9999.0,0.21,1111122 
LUMCON,ioos:station:LUMCON:104:1,2011-03-11T08:00:00Z,29.5526,-90.8070,-9999.0,0.21,1111122 
LUMCON,ioos:station:LUMCON:104:1,2011-03-11T09:00:00Z,29.5526,-90.8070,-9999.0,0.205,1111122 
LUMCON,ioos:station:LUMCON:104:1,2011-03-11T10:00:00Z,29.5526,-90.8070,-9999.0,0.202,1111122 
LUMCON,ioos:station:LUMCON:104:1,2011-03-11T11:00:00Z,29.5526,-90.8070,-9999.0,0.2,1111122 
LUMCON,ioos:station:LUMCON:104:1,2011-03-11T12:00:00Z,29.5526,-90.8070,-9999.0,0.2,1111122 
LUMCON,ioos:station:LUMCON:104:1,2011-03-11T13:00:00Z,29.5526,-90.8070,-9999.0,0.2,1111122 
LUMCON,ioos:station:LUMCON:104:1,2011-03-11T14:00:00Z,29.5526,-90.8070,-9999.0,0.2,1111122 
LUMCON,ioos:station:LUMCON:104:1,2011-03-11T15:00:00Z,29.5526,-90.8070,-9999.0,0.2,1111122 
LUMCON,ioos:station:LUMCON:104:1,2011-03-11T16:00:00Z,29.5526,-90.8070,-9999.0,0.2,1111122 
LUMCON,ioos:station:LUMCON:104:1,2011-03-11T17:00:00Z,29.5526,-90.8070,-9999.0,0.2,1111122 
LUMCON,ioos:station:LUMCON:104:1,2011-03-11T18:00:00Z,29.5526,-90.8070,-9999.0,0.2,1111122 
LUMCON,ioos:station:LUMCON:104:1,2011-03-11T19:00:00Z,29.5526,-90.8070,-9999.0,0.2,1111122 
LUMCON,ioos:station:LUMCON:104:1,2011-03-11T20:00:00Z,29.5526,-90.8070,-9999.0,0.2,1111122 
LUMCON,ioos:station:LUMCON:104:1,2011-03-11T21:00:00Z,29.5526,-90.8070,-9999.0,0.2,1111122 
LUMCON,ioos:station:LUMCON:104:1,2011-03-11T22:00:00Z,29.5526,-90.8070,-9999.0,0.2,1111122 
LUMCON,ioos:station:LUMCON:104:1,2011-03-11T23:00:00Z,29.5526,-90.8070,-9999.0,0.194,1111122 
LUMCON,ioos:station:LUMCON:104:1,2011-03-12T01:00:00Z,29.5526,-90.8070,-9999.0,0.19,1111122 
LUMCON,ioos:station:LUMCON:104:1,2011-03-12T02:00:00Z,29.5526,-90.8070,-9999.0,0.19,1111122 
LUMCON,ioos:station:LUMCON:104:1,2011-03-12T03:00:00Z,29.5526,-90.8070,-9999.0,0.19,1111122 
LUMCON,ioos:station:LUMCON:104:1,2011-03-12T04:00:00Z,29.5526,-90.8070,-9999.0,0.19,1111122 
LUMCON,ioos:station:LUMCON:104:1,2011-03-12T05:00:00Z,29.5526,-90.8070,-9999.0,0.19,1111122 
LUMCON,ioos:station:LUMCON:104:1,2011-03-12T06:00:00Z,29.5526,-90.8070,-9999.0,0.19,1111122 
LUMCON,ioos:station:LUMCON:104:1,2011-03-12T07:00:00Z,29.5526,-90.8070,-9999.0,0.19,1111122 
LUMCON,ioos:station:LUMCON:104:1,2011-03-12T08:00:00Z,29.5526,-90.8070,-9999.0,0.19,1111122 
LUMCON,ioos:station:LUMCON:104:1,2011-03-12T09:00:00Z,29.5526,-90.8070,-9999.0,0.19,1111122 
LUMCON,ioos:station:LUMCON:104:1,2011-03-12T10:00:00Z,29.5526,-90.8070,-9999.0,0.19,1111122 
LUMCON,ioos:station:LUMCON:104:1,2011-03-12T11:00:00Z,29.5526,-90.8070,-9999.0,0.19,1111122 
LUMCON,ioos:station:LUMCON:104:1,2011-03-12T12:00:00Z,29.5526,-90.8070,-9999.0,0.19,1111122 
LUMCON,ioos:station:LUMCON:104:1,2011-03-12T13:00:00Z,29.5526,-90.8070,-9999.0,0.19,1111122 
LUMCON,ioos:station:LUMCON:104:1,2011-03-12T14:00:00Z,29.5526,-90.8070,-9999.0,0.19,1111122 
LUMCON,ioos:station:LUMCON:104:1,2011-03-12T15:00:00Z,29.5526,-90.8070,-9999.0,0.19,1111122 
LUMCON,ioos:station:LUMCON:104:1,2011-03-12T16:00:00Z,29.5526,-90.8070,-9999.0,0.19,1111122 
LUMCON,ioos:station:LUMCON:104:1,2011-03-12T17:00:00Z,29.5526,-90.8070,-9999.0,0.19,1111122 
LUMCON,ioos:station:LUMCON:104:1,2011-03-12T18:00:00Z,29.5526,-90.8070,-9999.0,0.19,1111122 
LUMCON,ioos:station:LUMCON:104:1,2011-03-12T19:00:00Z,29.5526,-90.8070,-9999.0,0.19,1111122 
LUMCON,ioos:station:LUMCON:104:1,2011-03-12T20:00:00Z,29.5526,-90.8070,-9999.0,0.19,1111122 
LUMCON,ioos:station:LUMCON:104:1,2011-03-12T21:00:00Z,29.5526,-90.8070,-9999.0,0.19,1111122 
LUMCON,ioos:station:LUMCON:104:1,2011-03-12T22:00:00Z,29.5526,-90.8070,-9999.0,0.19,1111122 
LUMCON,ioos:station:LUMCON:104:1,2011-03-12T23:00:00Z,29.5526,-90.8070,-9999.0,0.19,1111122 
LUMCON,ioos:station:LUMCON:104:1,2011-03-13T16:00:00Z,29.5526,-90.8070,-9999.0,0.19,1111122 
LUMCON,ioos:station:LUMCON:104:1,2011-03-13T17:00:00Z,29.5526,-90.8070,-9999.0,0.19,1111122 
LUMCON,ioos:station:LUMCON:104:1,2011-03-13T18:00:00Z,29.5526,-90.8070,-9999.0,0.19,1111122 
LUMCON,ioos:station:LUMCON:104:1,2011-03-13T19:00:00Z,29.5526,-90.8070,-9999.0,0.19,1111122 
LUMCON,ioos:station:LUMCON:104:1,2011-03-13T20:00:00Z,29.5526,-90.8070,-9999.0,0.19,1111122 
LUMCON,ioos:station:LUMCON:104:1,2011-03-13T21:00:00Z,29.5526,-90.8070,-9999.0,0.19,1111122 
LUMCON,ioos:station:LUMCON:104:1,2011-03-13T22:00:00Z,29.5526,-90.8070,-9999.0,0.19,1111122 
LUMCON,ioos:station:LUMCON:104:1,2011-03-13T23:00:00Z,29.5526,-90.8070,-9999.0,0.19,1111122 
LUMCON,ioos:station:LUMCON:104:1,2011-03-14T01:00:00Z,29.5526,-90.8070,-9999.0,0.19,1111122 
LUMCON,ioos:station:LUMCON:104:1,2011-03-14T02:00:00Z,29.5526,-90.8070,-9999.0,0.19,1111122 
LUMCON,ioos:station:LUMCON:104:1,2011-03-14T03:00:00Z,29.5526,-90.8070,-9999.0,0.19,1111122 
LUMCON,ioos:station:LUMCON:104:1,2011-03-14T04:00:00Z,29.5526,-90.8070,-9999.0,0.19,1111122 
LUMCON,ioos:station:LUMCON:104:1,2011-03-14T05:00:00Z,29.5526,-90.8070,-9999.0,0.19,1111122 
LUMCON,ioos:station:LUMCON:104:1,2011-03-14T06:00:00Z,29.5526,-90.8070,-9999.0,0.19,1111122 
LUMCON,ioos:station:LUMCON:104:1,2011-03-14T07:00:00Z,29.5526,-90.8070,-9999.0,0.19,1111122 
LUMCON,ioos:station:LUMCON:104:1,2011-03-14T08:00:00Z,29.5526,-90.8070,-9999.0,0.19,1111122 
LUMCON,ioos:station:LUMCON:104:1,2011-03-14T09:00:00Z,29.5526,-90.8070,-9999.0,0.19,1111122 
LUMCON,ioos:station:LUMCON:104:1,2011-03-14T10:00:00Z,29.5526,-90.8070,-9999.0,0.19,1111122 
LUMCON,ioos:station:LUMCON:104:1,2011-03-14T11:00:00Z,29.5526,-90.8070,-9999.0,0.19,1111122 
LUMCON,ioos:station:LUMCON:104:1,2011-03-14T12:00:00Z,29.5526,-90.8070,-9999.0,0.19,1111122 
LUMCON,ioos:station:LUMCON:104:1,2011-03-14T13:00:00Z,29.5526,-90.8070,-9999.0,0.19,1111122 
LUMCON,ioos:station:LUMCON:104:1,2011-03-14T14:00:00Z,29.5526,-90.8070,-9999.0,0.19,1111122 
LUMCON,ioos:station:LUMCON:104:1,2011-03-14T15:00:00Z,29.5526,-90.8070,-9999.0,0.185,1111122 
LUMCON,ioos:station:LUMCON:104:1,2011-03-14T16:00:00Z,29.5526,-90.8070,-9999.0,0.189,1111122 
LUMCON,ioos:station:LUMCON:104:1,2011-03-14T17:00:00Z,29.5526,-90.8070,-9999.0,0.188,1111122 
LUMCON,ioos:station:LUMCON:104:1,2011-03-14T18:00:00Z,29.5526,-90.8070,-9999.0,0.19,1111122 
LUMCON,ioos:station:LUMCON:104:1,2011-03-14T19:00:00Z,29.5526,-90.8070,-9999.0,0.19,1111122 
LUMCON,ioos:station:LUMCON:104:1,2011-03-14T20:00:00Z,29.5526,-90.8070,-9999.0,0.184,1111122 
LUMCON,ioos:station:LUMCON:104:1,2011-03-14T21:00:00Z,29.5526,-90.8070,-9999.0,0.183,1111122 
LUMCON,ioos:station:LUMCON:104:1,2011-03-14T22:00:00Z,29.5526,-90.8070,-9999.0,0.19,1111122 
LUMCON,ioos:station:LUMCON:104:1,2011-03-14T23:00:00Z,29.5526,-90.8070,-9999.0,0.184,1111122 
LUMCON,ioos:station:LUMCON:104:1,2011-03-15T17:00:00Z,29.5526,-90.8070,-9999.0,0.18,1111122 
LUMCON,ioos:station:LUMCON:104:1,2011-03-15T18:00:00Z,29.5526,-90.8070,-9999.0,0.18,1111122 
LUMCON,ioos:station:LUMCON:104:1,2011-03-15T19:00:00Z,29.5526,-90.8070,-9999.0,0.18,1111122 
LUMCON,ioos:station:LUMCON:104:1,2011-03-15T20:00:00Z,29.5526,-90.8070,-9999.0,0.18,1111122 
LUMCON,ioos:station:LUMCON:104:1,2011-03-15T21:00:00Z,29.5526,-90.8070,-9999.0,0.18,1111122 
LUMCON,ioos:station:LUMCON:104:1,2011-03-15T22:00:00Z,29.5526,-90.8070,-9999.0,0.18,1111122 
LUMCON,ioos:station:LUMCON:104:1,2011-03-15T23:00:00Z,29.5526,-90.8070,-9999.0,0.18,1111122 
LUMCON,ioos:station:LUMCON:104:1,2011-03-16T01:00:00Z,29.5526,-90.8070,-9999.0,0.18,1111122 
LUMCON,ioos:station:LUMCON:104:1,2011-03-16T02:00:00Z,29.5526,-90.8070,-9999.0,0.18,1111122 
LUMCON,ioos:station:LUMCON:104:1,2011-03-16T03:00:00Z,29.5526,-90.8070,-9999.0,0.18,1111122 
LUMCON,ioos:station:LUMCON:104:1,2011-03-16T04:00:00Z,29.5526,-90.8070,-9999.0,0.18,1111122 
LUMCON,ioos:station:LUMCON:104:1,2011-03-16T05:00:00Z,29.5526,-90.8070,-9999.0,0.18,1111122 
LUMCON,ioos:station:LUMCON:104:1,2011-03-16T06:00:00Z,29.5526,-90.8070,-9999.0,0.18,1111122 
LUMCON,ioos:station:LUMCON:104:1,2011-03-16T07:00:00Z,29.5526,-90.8070,-9999.0,0.18,1111122 
LUMCON,ioos:station:LUMCON:104:1,2011-03-16T08:00:00Z,29.5526,-90.8070,-9999.0,0.18,1111122 
LUMCON,ioos:station:LUMCON:104:1,2011-03-16T09:00:00Z,29.5526,-90.8070,-9999.0,0.18,1111122 
LUMCON,ioos:station:LUMCON:104:1,2011-03-16T10:00:00Z,29.5526,-90.8070,-9999.0,0.18,1111122 
LUMCON,ioos:station:LUMCON:104:1,2011-03-16T11:00:00Z,29.5526,-90.8070,-9999.0,0.18,1111122 
LUMCON,ioos:station:LUMCON:104:1,2011-03-16T12:00:00Z,29.5526,-90.8070,-9999.0,0.18,1111122 
LUMCON,ioos:station:LUMCON:104:1,2011-03-16T13:00:00Z,29.5526,-90.8070,-9999.0,0.18,1111122 
LUMCON,ioos:station:LUMCON:104:1,2011-03-16T14:00:00Z,29.5526,-90.8070,-9999.0,0.18,1111122 
LUMCON,ioos:station:LUMCON:104:1,2011-03-16T15:00:00Z,29.5526,-90.8070,-9999.0,0.18,1111122 
LUMCON,ioos:station:LUMCON:104:1,2011-03-16T16:00:00Z,29.5526,-90.8070,-9999.0,0.18,1111122 
LUMCON,ioos:station:LUMCON:104:1,2011-03-16T17:00:00Z,29.5526,-90.8070,-9999.0,0.18,1111122 
LUMCON,ioos:station:LUMCON:104:1,2011-03-16T18:00:00Z,29.5526,-90.8070,-9999.0,0.18,1111122 
LUMCON,ioos:station:LUMCON:104:1,2011-03-16T19:00:00Z,29.5526,-90.8070,-9999.0,0.18,1111122 
LUMCON,ioos:station:LUMCON:104:1,2011-03-16T20:00:00Z,29.5526,-90.8070,-9999.0,0.18,1111122 
LUMCON,ioos:station:LUMCON:104:1,2011-03-16T21:00:00Z,29.5526,-90.8070,-9999.0,0.18,1111122 
LUMCON,ioos:station:LUMCON:104:1,2011-03-16T22:00:00Z,29.5526,-90.8070,-9999.0,0.18,1111122 
LUMCON,ioos:station:LUMCON:104:1,2011-03-16T23:00:00Z,29.5526,-90.8070,-9999.0,0.18,1111122 
LUMCON,ioos:station:LUMCON:104:1,2011-03-17T01:00:00Z,29.5526,-90.8070,-9999.0,0.177,1111122 
LUMCON,ioos:station:LUMCON:104:1,2011-03-17T02:00:00Z,29.5526,-90.8070,-9999.0,0.17,1111122 
LUMCON,ioos:station:LUMCON:104:1,2011-03-17T03:00:00Z,29.5526,-90.8070,-9999.0,0.17,1111122 
LUMCON,ioos:station:LUMCON:104:1,2011-03-17T04:00:00Z,29.5526,-90.8070,-9999.0,0.17,1111122 
LUMCON,ioos:station:LUMCON:104:1,2011-03-17T05:00:00Z,29.5526,-90.8070,-9999.0,0.17,1111122 
LUMCON,ioos:station:LUMCON:104:1,2011-03-17T06:00:00Z,29.5526,-90.8070,-9999.0,0.17,1111122 
LUMCON,ioos:station:LUMCON:104:1,2011-03-17T07:00:00Z,29.5526,-90.8070,-9999.0,0.17,1111122 
LUMCON,ioos:station:LUMCON:104:1,2011-03-17T08:00:00Z,29.5526,-90.8070,-9999.0,0.17,1111122 
LUMCON,ioos:station:LUMCON:104:1,2011-03-17T09:00:00Z,29.5526,-90.8070,-9999.0,0.17,1111122 
LUMCON,ioos:station:LUMCON:104:1,2011-03-17T10:00:00Z,29.5526,-90.8070,-9999.0,0.17,1111122 
LUMCON,ioos:station:LUMCON:104:1,2011-03-17T11:00:00Z,29.5526,-90.8070,-9999.0,0.17,1111122 
LUMCON,ioos:station:LUMCON:104:1,2011-03-17T12:00:00Z,29.5526,-90.8070,-9999.0,0.17,1111122 
LUMCON,ioos:station:LUMCON:104:1,2011-03-17T13:00:00Z,29.5526,-90.8070,-9999.0,0.17,1111122 
LUMCON,ioos:station:LUMCON:104:1,2011-03-17T14:00:00Z,29.5526,-90.8070,-9999.0,0.17,1111122 
LUMCON,ioos:station:LUMCON:104:1,2011-03-17T15:00:00Z,29.5526,-90.8070,-9999.0,0.17,1111122 
LUMCON,ioos:station:LUMCON:104:1,2011-03-17T16:00:00Z,29.5526,-90.8070,-9999.0,0.17,1111122 
LUMCON,ioos:station:LUMCON:104:1,2011-03-17T17:00:00Z,29.5526,-90.8070,-9999.0,0.17,1111122 
LUMCON,ioos:station:LUMCON:104:1,2011-03-17T18:00:00Z,29.5526,-90.8070,-9999.0,0.17,1111122 
LUMCON,ioos:station:LUMCON:104:1,2011-03-17T19:00:00Z,29.5526,-90.8070,-9999.0,0.17,1111122 
LUMCON,ioos:station:LUMCON:104:1,2011-03-17T20:00:00Z,29.5526,-90.8070,-9999.0,0.17,1111122 
LUMCON,ioos:station:LUMCON:104:1,2011-03-17T21:00:00Z,29.5526,-90.8070,-9999.0,0.17,1111122 
LUMCON,ioos:station:LUMCON:104:1,2011-03-17T22:00:00Z,29.5526,-90.8070,-9999.0,0.17,1111122 
LUMCON,ioos:station:LUMCON:104:1,2011-03-17T23:00:00Z,29.5526,-90.8070,-9999.0,0.17,1111122 
LUMCON,ioos:station:LUMCON:104:1,2011-03-18T01:00:00Z,29.5526,-90.8070,-9999.0,0.17,1111122 
LUMCON,ioos:station:LUMCON:104:1,2011-03-18T02:00:00Z,29.5526,-90.8070,-9999.0,0.17,1111122 
LUMCON,ioos:station:LUMCON:104:1,2011-03-18T03:00:00Z,29.5526,-90.8070,-9999.0,0.17,1111122 
LUMCON,ioos:station:LUMCON:104:1,2011-03-18T04:00:00Z,29.5526,-90.8070,-9999.0,0.17,1111122 
LUMCON,ioos:station:LUMCON:104:1,2011-03-18T05:00:00Z,29.5526,-90.8070,-9999.0,0.17,1111122 
LUMCON,ioos:station:LUMCON:104:1,2011-03-18T06:00:00Z,29.5526,-90.8070,-9999.0,0.17,1111122 
LUMCON,ioos:station:LUMCON:104:1,2011-03-18T07:00:00Z,29.5526,-90.8070,-9999.0,0.17,1111122 
LUMCON,ioos:station:LUMCON:104:1,2011-03-18T08:00:00Z,29.5526,-90.8070,-9999.0,0.17,1111122 
LUMCON,ioos:station:LUMCON:104:1,2011-03-18T09:00:00Z,29.5526,-90.8070,-9999.0,0.17,1111122 
LUMCON,ioos:station:LUMCON:104:1,2011-03-18T10:00:00Z,29.5526,-90.8070,-9999.0,0.17,1111122 
LUMCON,ioos:station:LUMCON:104:1,2011-03-18T11:00:00Z,29.5526,-90.8070,-9999.0,0.17,1111122 
LUMCON,ioos:station:LUMCON:104:1,2011-03-18T12:00:00Z,29.5526,-90.8070,-9999.0,0.17,1111122 
LUMCON,ioos:station:LUMCON:104:1,2011-03-18T13:00:00Z,29.5526,-90.8070,-9999.0,0.17,1111122 
LUMCON,ioos:station:LUMCON:104:1,2011-03-18T14:00:00Z,29.5526,-90.8070,-9999.0,0.17,1111122 
LUMCON,ioos:station:LUMCON:104:1,2011-03-18T15:00:00Z,29.5526,-90.8070,-9999.0,0.17,1111122 
LUMCON,ioos:station:LUMCON:104:1,2011-03-18T16:00:00Z,29.5526,-90.8070,-9999.0,0.17,1111122 
LUMCON,ioos:station:LUMCON:104:1,2011-03-18T17:00:00Z,29.5526,-90.8070,-9999.0,0.17,1111122 
LUMCON,ioos:station:LUMCON:104:1,2011-03-18T18:00:00Z,29.5526,-90.8070,-9999.0,0.17,1111122 
LUMCON,ioos:station:LUMCON:104:1,2011-03-18T19:00:00Z,29.5526,-90.8070,-9999.0,0.17,1111122 
LUMCON,ioos:station:LUMCON:104:1,2011-03-18T20:00:00Z,29.5526,-90.8070,-9999.0,0.17,1111122 
LUMCON,ioos:station:LUMCON:104:1,2011-03-18T21:00:00Z,29.5526,-90.8070,-9999.0,0.17,1111122 
LUMCON,ioos:station:LUMCON:104:1,2011-03-18T22:00:00Z,29.5526,-90.8070,-9999.0,0.17,1111122 
LUMCON,ioos:station:LUMCON:104:1,2011-03-18T23:00:00Z,29.5526,-90.8070,-9999.0,0.17,1111122 
LUMCON,ioos:station:LUMCON:104:1,2011-03-19T01:00:00Z,29.5526,-90.8070,-9999.0,0.17,1111122 
LUMCON,ioos:station:LUMCON:104:1,2011-03-19T02:00:00Z,29.5526,-90.8070,-9999.0,0.17,1111122 
LUMCON,ioos:station:LUMCON:104:1,2011-03-19T03:00:00Z,29.5526,-90.8070,-9999.0,0.17,1111122 
LUMCON,ioos:station:LUMCON:104:1,2011-03-19T04:00:00Z,29.5526,-90.8070,-9999.0,0.17,1111122 
LUMCON,ioos:station:LUMCON:104:1,2011-03-19T05:00:00Z,29.5526,-90.8070,-9999.0,0.17,1111122 
LUMCON,ioos:station:LUMCON:104:1,2011-03-19T06:00:00Z,29.5526,-90.8070,-9999.0,0.17,1111122 
LUMCON,ioos:station:LUMCON:104:1,2011-03-19T07:00:00Z,29.5526,-90.8070,-9999.0,0.17,1111122 
LUMCON,ioos:station:LUMCON:104:1,2011-03-19T08:00:00Z,29.5526,-90.8070,-9999.0,0.17,1111122 
LUMCON,ioos:station:LUMCON:104:1,2011-03-19T09:00:00Z,29.5526,-90.8070,-9999.0,0.17,1111122 
LUMCON,ioos:station:LUMCON:104:1,2011-03-19T10:00:00Z,29.5526,-90.8070,-9999.0,0.17,1111122 
LUMCON,ioos:station:LUMCON:104:1,2011-03-19T11:00:00Z,29.5526,-90.8070,-9999.0,0.17,1111122 
LUMCON,ioos:station:LUMCON:104:1,2011-03-19T12:00:00Z,29.5526,-90.8070,-9999.0,0.17,1111122 
LUMCON,ioos:station:LUMCON:104:1,2011-03-19T13:00:00Z,29.5526,-90.8070,-9999.0,0.17,1111122 
LUMCON,ioos:station:LUMCON:104:1,2011-03-19T14:00:00Z,29.5526,-90.8070,-9999.0,0.17,1111122 
LUMCON,ioos:station:LUMCON:104:1,2011-03-19T15:00:00Z,29.5526,-90.8070,-9999.0,0.17,1111122 
LUMCON,ioos:station:LUMCON:104:1,2011-03-19T16:00:00Z,29.5526,-90.8070,-9999.0,0.17,1111122 
LUMCON,ioos:station:LUMCON:104:1,2011-03-19T17:00:00Z,29.5526,-90.8070,-9999.0,0.17,1111122 
LUMCON,ioos:station:LUMCON:104:1,2011-03-19T18:00:00Z,29.5526,-90.8070,-9999.0,0.17,1111122 
LUMCON,ioos:station:LUMCON:104:1,2011-03-19T19:00:00Z,29.5526,-90.8070,-9999.0,0.17,1111122 
LUMCON,ioos:station:LUMCON:104:1,2011-03-19T20:00:00Z,29.5526,-90.8070,-9999.0,0.17,1111122 
LUMCON,ioos:station:LUMCON:104:1,2011-03-19T21:00:00Z,29.5526,-90.8070,-9999.0,0.17,1111122 
LUMCON,ioos:station:LUMCON:104:1,2011-03-19T22:00:00Z,29.5526,-90.8070,-9999.0,0.17,1111122 
LUMCON,ioos:station:LUMCON:104:1,2011-03-19T23:00:00Z,29.5526,-90.8070,-9999.0,0.17,1111122 
LUMCON,ioos:station:LUMCON:104:1,2011-03-20T01:00:00Z,29.5526,-90.8070,-9999.0,0.17,1111122 
LUMCON,ioos:station:LUMCON:104:1,2011-03-20T02:00:00Z,29.5526,-90.8070,-9999.0,0.17,1111122 
LUMCON,ioos:station:LUMCON:104:1,2011-03-20T03:00:00Z,29.5526,-90.8070,-9999.0,0.17,1111122 
LUMCON,ioos:station:LUMCON:104:1,2011-03-20T04:00:00Z,29.5526,-90.8070,-9999.0,0.17,1111122 
LUMCON,ioos:station:LUMCON:104:1,2011-03-20T05:00:00Z,29.5526,-90.8070,-9999.0,0.17,1111122 
LUMCON,ioos:station:LUMCON:104:1,2011-03-20T06:00:00Z,29.5526,-90.8070,-9999.0,0.17,1111122 
LUMCON,ioos:station:LUMCON:104:1,2011-03-20T07:00:00Z,29.5526,-90.8070,-9999.0,0.17,1111122 
LUMCON,ioos:station:LUMCON:104:1,2011-03-20T08:00:00Z,29.5526,-90.8070,-9999.0,0.17,1111122 